カタログに戻る

DELTA 2 R/B(1)

運用中UNKNOWN
NORAD 22176·ROCKET BODY·🇺🇸 United States

打ち上げ Oct 12, 1992 から Cape Canaveral Space Force Station

Loading…

次のパス (今後24時間)

TLE

最新Source: Space-Track

元期: Sep 14, 2026, 20:36 UTC

1 22176U 92066B   26257.85886119  .00000109  00000-0  70475-3 0  9995
2 22176  25.0833 103.5480 0965623 185.5174 207.4835 10.85575087346776

AllMySatでDELTA 2 R/B(1)をリアルタイム追跡

Download on the App Store